Paganella, Italy

3:56 PM CEST on July 25, 2017 (GMT +0200)
Paganella

Weather History for LIVP - September, 2013

Change the Weather History Date:

Monday, September 2, 2013

  Actual Average Record
Temperature  
Mean Temperature 46 °F -  
Max Temperature 52 °F 50 °F 62 °F (2016)
Min Temperature 41 °F 40 °F 33 °F (2003)
Degree Days  
Heating Degree Days 18    
Moisture  
Dew Point 34 °F    
Average Humidity 62    
Maximum Humidity 87    
Minimum Humidity 38    
Precipitation  
Precipitation 0.00 in 0.12 in - ()
Sea Level Pressure  
Sea Level Pressure 30.33 in    
Wind  
Wind Speed 7 mph ()    
Max Wind Speed 15 mph    
Max Gust Speed -    
Visibility 7.5 miles    
Events      
Averages and records for this station are not official NWS values.
T = Trace of Precipitation, MM = Missing Value Source: Averaged Metar Reports

Daily Weather History Graph

Daily Weather History Graph

Search for Another Location

Airport or City:

Trip Planner

Search our weather history database for the weather conditions in past years. The results will help you decide how hot, cold, wet, or windy it might be!

Date:

Astronomy

Sep. 02, 2013 Rise Set
Actual Time 6:37 AM CEST 7:52 PM CEST
Civil Twilight 6:06 AM CEST 8:23 PM CEST
Nautical Twilight 5:29 AM CEST 9:00 PM CEST
Astronomical Twilight 4:49 AM CEST 9:39 PM CEST
Moon 3:32 AM CEST (9/2) 6:00 PM CEST (9/2)
Length of Visible Light 14h 16m
Length of Day
13h 14m
Waning Crescent, 9% of the Moon is Illuminated
Sep 2
Waning Crescent
Sep 5
New
Sep 12
First Quarter
Sep 19
Full
Sep 27
Last Quarter

Hourly Weather History & Observations

Time (CEST) Temp. Windchill Dew Point Humidity Pressure Visibility Wind Dir Wind Speed Gust Speed Precip Events Conditions
12:55 AM 42.8 °F 35.8 °F 39.2 °F 87% 30.30 in 6.2 mi North 13.8 mph - N/A   Mostly Cloudy
1:55 AM 42.8 °F 36.6 °F 39.2 °F 87% 30.30 in 6.2 mi North 11.5 mph - N/A   Scattered Clouds
2:00 AM 42 °F - 39 °F 85%  in 19 mi North 11.5 mph - -   Partly Cloudy
2:55 AM 42.8 °F 37.5 °F 39.2 °F 87% 30.30 in 6.2 mi North 9.2 mph - N/A   Partly Cloudy
3:55 AM 42.8 °F 35.8 °F 39.2 °F 87% 30.27 in 6.2 mi North 13.8 mph - N/A   Partly Cloudy
4:55 AM 41.0 °F 33.9 °F 35.6 °F 81% 30.27 in 6.2 mi North 12.7 mph - N/A   Partly Cloudy
5:55 AM 41.0 °F 33.1 °F 32.0 °F 70% 30.27 in 6.2 mi North 15.0 mph - N/A   Partly Cloudy
6:55 AM 41.0 °F 35.8 °F 33.8 °F 76% 30.27 in 6.2 mi North 8.1 mph - N/A   Partly Cloudy
7:55 AM 41.0 °F 37.1 °F 33.8 °F 76% 30.30 in - North 5.8 mph - N/A   Clear
8:55 AM 42.8 °F 38.6 °F 35.6 °F 76% 30.30 in - North 6.9 mph - N/A   Clear
9:55 AM 44.6 °F 43.1 °F 33.8 °F 66% 30.30 in 6.2 mi Variable 3.5 mph - N/A   Partly Cloudy
10:55 AM 46.4 °F - 30.2 °F 53% 30.33 in 6.2 mi Variable 2.3 mph - N/A   Partly Cloudy
11:00 AM 46 °F - 30 °F 42%  in 31 mi 2.3 mph - -   Scattered Clouds
11:55 AM 46.4 °F 44.3 °F 37.4 °F 71% 30.33 in 6.2 mi North 4.6 mph - N/A   Partly Cloudy
12:55 PM 48.2 °F - 32.0 °F 54% 30.36 in 6.2 mi North 5.8 mph - N/A   Partly Cloudy
1:55 PM 48.2 °F - 32.0 °F 54% 30.36 in 6.2 mi Variable 2.3 mph - N/A   Partly Cloudy
2:00 PM 48 °F - 31 °F 40%  in 37 mi 2.3 mph - -   Scattered Clouds
2:55 PM 50.0 °F - 32.0 °F 50% 30.36 in 6.2 mi SSE 4.6 mph - N/A   Partly Cloudy
3:55 PM 50.0 °F - 37.4 °F 62% 30.36 in 6.2 mi Variable 3.5 mph - N/A   Partly Cloudy
4:55 PM 51.8 °F - 39.2 °F 62% 30.36 in 6.2 mi Variable 3.5 mph - N/A   Partly Cloudy
5:00 PM 52 °F - 39 °F 49%  in 37 mi 3.5 mph - -   Scattered Clouds
5:55 PM 51.8 °F - 33.8 °F 50% 30.36 in 6.2 mi Variable 2.3 mph - N/A   Partly Cloudy
6:55 PM 51.8 °F - 33.8 °F 50% 30.36 in 6.2 mi North 6.9 mph - N/A   Partly Cloudy
7:55 PM 50.0 °F - 32.0 °F 50% 30.36 in - North 6.9 mph - N/A   Clear
8:00 PM 49 °F - 31 °F 38%  in 25 mi North 6.9 mph - -   Mostly Cloudy
8:55 PM 48.2 °F - 32.0 °F 54% 30.36 in - North 8.1 mph - N/A   Clear
9:55 PM 46.4 °F 43.5 °F 32.0 °F 57% 30.39 in - North 5.8 mph - N/A   Clear
10:55 PM 46.4 °F 43.5 °F 32.0 °F 57% 30.39 in - North 5.8 mph - N/A   Clear
11:00 PM 46 °F - 32 °F 45%  in 19 mi North 5.8 mph - -   Scattered Clouds
11:55 PM 46.4 °F 41.9 °F 32.0 °F 57% 30.39 in - North 9.2 mph - N/A   Clear